Total_Precipitation_Accumulation
2.06 2.49 2.79 3.33 3.93 4.35 4.76 4.92 4.97 4.88 4.71 4.37 4.06 3.83 3.58 3.36 3.11 2.93 2.83 2.75 2.69 2.90 3.38 3.17 3.43 3.36 3.37 3.42 3.46 3.60 3.50 3.19 3.38 3.46 3.04 2.44 2.00 1.97 1.75 1.70 1.75 1.82 1.82
2.00 2.53 2.84 3.05 3.48 3.98 4.44 4.75 4.95 4.83 4.45 4.10 3.94 3.85 3.80 3.39 3.11 3.10 3.23 3.06 3.06 3.12 3.17 3.40 3.33 3.37 3.51 3.46 3.44 3.60 3.39 3.02 3.30 3.66 3.72 3.01 2.58 2.10 1.59 1.71 1.83 2.01 2.10
2.28 2.58 2.79 2.92 3.16 3.55 3.85 3.95 4.14 4.11 3.95 4.00 4.02 3.99 4.00 3.59 3.53 3.54 3.54 3.33 3.33 3.34 3.34 3.33 3.24 3.26 3.07 3.16 3.25 3.28 3.31 3.24 3.18 3.49 3.83 3.38 2.88 2.48 1.87 1.74 1.78 2.05 2.38
1.96 2.18 2.47 2.74 2.91 3.14 3.46 3.67 3.73 3.68 3.61 3.73 3.80 3.71 3.53 3.42 3.59 3.86 3.79 3.51 3.30 3.17 2.98 2.93 3.10 3.12 2.92 2.98 2.64 2.81 3.02 3.01 2.87 3.15 3.20 3.22 3.22 3.12 2.43 1.97 1.80 1.96 2.18
1.70 1.83 2.03 2.35 2.49 2.81 3.09 3.28 3.54 3.63 3.57 3.65 3.64 3.68 3.51 3.51 3.57 3.59 3.64 3.44 3.26 2.94 2.60 2.63 2.84 2.80 2.71 2.62 2.53 2.73 2.58 2.50 2.57 2.80 2.99 3.07 3.16 3.04 2.86 2.41 2.35 2.30 2.15
1.49 1.71 1.89 2.18 2.36 2.49 2.62 2.72 2.93 3.19 3.37 3.42 3.39 3.44 3.39 3.38 3.34 3.32 3.21 3.02 2.87 2.66 2.36 2.24 2.42 2.53 2.57 2.53 2.50 2.59 2.47 2.48 2.62 2.62 2.69 2.94 2.94 2.90 3.06 2.63 2.47 2.48 2.22
1.22 1.46 1.62 1.80 2.01 2.13 2.24 2.37 2.63 2.98 3.08 3.04 3.00 3.11 3.18 3.20 3.14 3.12 2.97 2.76 2.54 2.31 2.24 2.24 2.34 2.36 2.42 2.31 2.35 2.39 2.43 2.61 2.68 2.59 2.53 2.65 2.69 2.81 3.07 3.02 2.70 2.58 2.37
0.98 1.12 1.40 1.72 1.89 1.89 1.95 2.10 2.39 2.65 2.69 2.62 2.76 3.02 3.09 3.14 3.06 3.09 2.77 2.52 2.31 2.26 2.34 2.31 2.17 2.12 2.22 2.10 2.37 2.29 2.35 2.58 2.64 2.40 2.66 2.67 2.66 2.95 3.19 3.30 3.39 3.05 2.72
0.99 1.06 1.17 1.39 1.53 1.59 1.65 1.80 2.22 2.49 2.58 2.65 2.77 2.90 3.00 2.98 2.95 2.86 2.56 2.31 2.32 2.28 2.41 2.35 2.24 2.14 2.23 2.34 2.62 2.56 2.50 2.71 2.70 2.70 2.90 2.82 2.76 2.89 3.02 3.23 3.49 3.58 3.18
0.84 0.91 0.96 1.08 1.19 1.37 1.63 1.80 1.94 2.25 2.36 2.44 2.60 2.63 2.88 2.81 2.65 2.59 2.35 2.11 2.03 2.10 2.28 2.40 2.33 2.24 2.28 2.47 2.67 2.65 2.80 2.97 2.99 3.05 3.13 3.07 2.88 2.95 2.99 3.04 3.30 3.64 3.56
0.75 0.80 0.94 1.07 1.17 1.31 1.51 1.62 1.66 1.85 2.00 2.13 2.34 2.36 2.39 2.47 2.52 2.33 2.06 1.96 1.98 2.05 2.12 2.30 2.36 2.31 2.35 2.47 2.55 2.51 2.82 2.96 2.99 2.96 2.95 2.92 3.06 3.04 2.92 3.02 3.20 3.48 3.57
0.81 0.86 1.03 1.16 1.23 1.37 1.41 1.44 1.52 1.72 1.91 2.08 2.29 2.36 2.34 2.37 2.38 2.22 2.02 1.98 2.03 2.09 2.09 2.20 2.24 2.14 2.16 2.37 2.41 2.45 2.73 2.89 2.78 2.78 2.78 2.57 2.64 2.72 2.59 2.73 2.81 2.95 3.21
0.86 0.94 1.06 1.11 1.12 1.22 1.35 1.38 1.39 1.59 1.81 2.01 2.31 2.47 2.49 2.43 2.33 2.12 1.90 1.83 1.83 1.92 1.96 1.99 2.02 2.07 2.22 2.32 2.31 2.33 2.34 2.37 2.44 2.66 2.78 2.57 2.55 2.47 2.47 2.50 2.48 2.56 2.67
0.84 0.95 0.99 1.13 1.12 1.15 1.29 1.30 1.37 1.46 1.70 1.92 2.11 2.23 2.10 2.04 2.02 1.91 1.76 1.70 1.71 1.75 1.82 1.90 2.00 2.07 2.14 2.19 2.26 2.33 2.26 2.22 2.27 2.42 2.49 2.46 2.43 2.36 2.46 2.38 2.37 2.45 2.61
0.74 0.82 0.84 0.91 0.97 1.11 1.24 1.16 1.20 1.25 1.37 1.54 1.64 1.77 1.75 1.73 1.72 1.78 1.82 1.82 1.86 1.82 1.89 1.97 1.97 1.97 1.96 1.89 1.95 2.04 2.06 2.18 2.13 2.04 2.05 2.07 2.12 2.11 2.15 2.00 2.18 2.43 2.58
0.55 0.53 0.71 0.82 0.79 0.83 0.94 0.90 0.94 1.07 1.22 1.30 1.40 1.63 1.75 1.76 1.75 1.82 1.95 1.96 1.92 1.92 1.95 1.90 1.95 1.95 1.68 1.86 1.91 1.92 2.01 2.08 2.09 2.00 1.89 1.79 1.79 1.73 1.73 1.69 1.77 2.07 2.31
0.54 0.50 0.58 0.74 0.75 0.76 0.78 0.89 1.01 1.14 1.25 1.39 1.54 1.71 1.82 1.90 1.91 1.88 2.00 1.96 1.97 2.04 2.00 1.92 1.92 1.95 2.01 2.07 1.91 1.78 1.75 1.84 1.90 1.87 1.84 1.61 1.53 1.71 1.68 1.73 1.70 1.72 1.88
0.54 0.54 0.55 0.57 0.62 0.69 0.76 0.93 1.22 1.47 1.52 1.67 1.85 1.94 2.06 2.01 1.98 1.98 2.02 2.10 2.20 2.24 2.21 2.15 2.06 2.04 2.03 2.04 1.84 1.85 1.76 1.77 1.76 1.78 1.81 1.80 1.72 1.79 1.91 1.88 1.80 1.68 1.64
0.56 0.59 0.66 0.68 0.74 0.79 0.84 1.02 1.26 1.57 1.76 1.81 1.91 2.05 2.15 2.19 2.20 2.21 2.18 2.27 2.40 2.36 2.29 2.23 2.24 2.18 2.20 2.28 2.08 2.11 1.95 1.93 1.93 1.96 1.96 1.94 1.84 1.99 1.95 1.84 1.81 1.76 1.75
0.68 0.70 0.73 0.85 1.04 1.11 1.13 1.24 1.37 1.52 1.71 1.78 1.89 2.07 2.30 2.35 2.37 2.52 2.61 2.57 2.52 2.38 2.40 2.39 2.36 2.36 2.40 2.65 2.46 2.30 2.12 2.11 2.10 2.20 2.18 2.22 2.07 2.07 2.00 1.83 1.84 1.86 1.88
0.80 0.78 0.81 0.97 1.22 1.35 1.39 1.49 1.63 1.72 1.73 1.82 1.96 2.14 2.32 2.41 2.49 2.66 2.74 2.72 2.66 2.63 2.59 2.53 2.57 2.55 2.54 2.71 2.49 2.28 2.14 2.19 2.33 2.32 2.23 2.29 2.33 2.12 2.12 2.07 1.97 1.95 1.96
0.91 0.95 0.99 1.15 1.39 1.56 1.53 1.61 1.70 1.72 1.76 1.77 1.91 2.04 2.19 2.21 2.31 2.59 2.68 2.78 2.80 2.75 2.66 2.61 2.47 2.49 2.47 2.40 2.27 2.18 2.15 2.24 2.36 2.42 2.35 2.31 2.32 2.09 2.02 1.89 1.85 1.89 1.78
0.96 1.03 1.09 1.27 1.54 1.73 1.76 1.84 1.74 1.80 1.84 1.86 1.99 2.13 2.21 2.26 2.36 2.48 2.53 2.63 2.70 2.64 2.52 2.54 2.49 2.43 2.42 2.40 2.17 1.96 1.93 1.99 2.02 2.16 2.32 2.24 2.14 1.93 1.73 1.69 1.66 1.58 1.46
0.91 0.97 1.10 1.20 1.32 1.53 1.74 1.86 1.88 1.93 1.93 1.96 2.02 2.11 2.22 2.22 2.30 2.43 2.53 2.64 2.74 2.81 2.69 2.55 2.44 2.43 2.39 2.26 2.08 1.89 1.81 1.92 2.04 2.13 2.20 2.08 1.97 1.78 1.62 1.53 1.43 1.38 1.45
0.93 0.98 1.08 1.13 1.19 1.28 1.42 1.50 1.63 1.76 1.82 1.90 1.97 2.00 2.04 2.14 2.26 2.32 2.43 2.41 2.49 2.52 2.50 2.42 2.38 2.37 2.29 2.14 2.06 1.87 1.75 1.88 2.06 2.12 2.12 1.98 1.92 1.81 1.71 1.63 1.57 1.56 1.57
1.02 1.04 1.08 1.08 1.10 1.17 1.32 1.44 1.54 1.69 1.85 1.95 1.98 1.93 1.88 1.96 2.04 2.13 2.15 2.17 2.06 2.05 1.99 1.99 1.97 1.90 1.81 1.70 1.58 1.56 1.58 1.67 1.85 1.86 1.91 2.00 1.96 1.89 1.81 1.71 1.63 1.59 1.57